ROMMA est une association bénévole à but non lucratif. Votre soutien est indispensable : ADHERER à ROMMA ou FAIRE un DON

Val-d'Arly - (73, Savoie)

Beaufortain (2050 m)   Longitude: 06° 35' 21" E   Latitude: 45° 46' 53" N Station romma n°118
 

Détail journalier du     <<     >>

Température Humidité Vent Dir Rafale Dir. rafale Ensol.
Heure (°C) (%) (km/h) (km/h) (min)
01:00 -2.29528---43---0
02:00 -2.19528---47---0
03:00 -2.19531---50---0
04:00 -2.19530---50---0
05:00 -2.29521---43---0
06:00 -3.09525---40---0
07:00 -3.19522---42---0
08:00 -3.39525---40---0
09:00 -3.29524---39---0
10:00 -3.39435---76---0
11:00 -3.29545---79---0
12:00 -5.09445---87---0
13:00 -4.99423---63---0
14:00 -4.79421---42---0
15:00 -4.69419---50---0
16:00 -5.19420---45---0
17:00 -5.89423---43---0
18:00 -6.29318---40---0
19:00 -6.69324---55---0
20:00 -6.79316---34---0
21:00 -6.8939---24---0
22:00 -6.4948---24---0
23:00 -5.99410---26---0
minuit

Graphique du 28-01-2020

 

Serveur OMMA